Location: Grand Rapids
(42.9630°N, 85.6680°W)
Time: 01:45:36
(UTC-04:00)

A-11 Canister half - Pass Details

Date: 05 June 2024
Orbit: 1524 x 1684 km, 47.3° (Epoch: 21 June)

Event Time Altitude Azimuth Distance (km) Brightness Sun altitude
Rises 00:08:48 0° 292° (WNW) 4,698 12.2 -21.1°
Reaches altitude 10° 00:11:49 10° 292° (WNW) 3,727 11.6 -21.3°
Maximum altitude 00:21:17 88° 206° (SSW) 1,583 8.9 -21.9°
Enters shadow 00:28:57 19° 117° (ESE) 3,178 10.2 -22.4°
Drops below altitude 10° 00:31:05 10° 117° (ESE) 3,839 - -22.5°
Sets 00:34:13 0° 117° (ESE) 4,844 - -22.6°
